CEST,Max TemperatureF,Mean TemperatureF,Min TemperatureF,Max Dew PointF,MeanDew PointF,Min DewpointF,Max Humidity, Mean Humidity, Min Humidity, Max Sea Level PressureIn, Mean Sea Level PressureIn, Min Sea Level PressureIn, Max VisibilityMiles, Mean VisibilityMiles, Min VisibilityMiles, Max Wind SpeedMPH, Mean Wind SpeedMPH, Max Gust SpeedMPH,PrecipitationIn, CloudCover, Events, WindDirDegrees
2012-9-1,48,42,37,43,37,33,87,76,52,30.18,30.07,30.01,12,6,0,14,6,,0.02,6,Fog,147
2012-9-2,54,46,38,45,41,37,93,78,59,30.33,30.27,30.21,12,4,0,14,7,,0.00,6,Fog-Rain,101
2012-9-3,56,51,46,48,41,34,94,68,52,30.33,30.25,30.24,7,5,3,17,8,29,0.00,4,Rain,49
2012-9-4,52,48,44,46,42,39,100,78,62,30.24,30.21,30.21,9,4,0,17,6,,0.51,7,Fog-Rain,348
2012-9-5,56,50,44,45,42,39,93,71,46,30.21,30.18,30.15,9,6,6,13,6,,0.20,5,Rain,88
2012-9-6,56,49,42,48,41,38,94,73,47,30.33,30.24,30.18,12,7,0,10,7,,0.00,5,Fog,313
2012-9-7,57,50,44,50,45,39,100,80,43,30.36,30.36,30.36,12,6,0,12,6,,0.00,4,Fog,356
2012-9-8,58,52,46,48,39,22,93,58,25,30.36,30.34,30.30,12,8,6,10,5,,0.00,,,111
2012-9-9,57,52,47,48,42,37,100,66,40,30.30,30.29,30.27,12,7,6,13,6,,0.00,3,,123
2012-9-10,59,52,46,47,38,28,87,55,24,30.27,30.27,30.27,12,7,6,12,5,,0.00,3,,101
2012-9-11,58,52,47,47,43,37,93,69,40,30.27,30.24,30.18,19,9,6,13,6,,0.00,4,,129
2012-9-12,49,41,33,48,42,30,100,89,77,30.15,29.96,29.80,6,1,0,14,8,,0.79,6,Fog-Rain-Snow,171
2012-9-13,41,36,32,29,26,21,87,65,34,29.92,29.81,29.74,6,6,6,14,12,26,0.00,5,,315
2012-9-14,54,43,32,38,32,27,87,67,40,29.98,29.95,29.92,12,8,6,14,9,,0.00,1,,305
2012-9-15,52,46,41,46,37,24,95,67,35,30.15,30.06,29.98,12,6,2,16,7,20,0.00,4,,174
2012-9-16,53,46,39,45,41,37,93,82,56,30.15,30.13,30.12,19,6,1,9,5,,0.00,4,Fog,89
2012-9-17,57,48,39,46,41,35,93,74,54,30.12,30.10,30.09,12,4,0,12,5,,0.00,2,Fog,117
2012-9-18,56,50,44,47,43,37,100,73,46,30.12,30.11,30.09,7,6,6,12,7,,0.00,2,,127
2012-9-19,47,42,37,43,40,34,93,85,75,30.09,29.99,29.98,7,3,0,13,9,24,0.35,8,Fog-Rain,62
2012-9-20,45,38,31,37,23,12,100,57,19,30.24,30.15,30.04,7,6,6,17,10,,0.00,1,,286
2012-9-21,47,41,35,41,37,32,100,84,65,30.24,30.22,30.21,16,5,1,14,6,,0.31,3,Fog,95
2012-9-22,51,42,34,45,39,32,93,84,64,30.12,30.08,30.06,12,4,0,12,6,,0.00,3,Fog,273
2012-9-23,50,42,35,45,40,32,93,82,68,30.18,30.16,30.15,9,3,0,9,5,,0.00,6,Fog,141
2012-9-24,49,42,34,45,39,32,93,87,74,30.09,29.90,29.77,6,1,0,16,12,41,0.94,7,Fog-Rain-Thunderstorm,185
2012-9-25,48,44,40,45,41,33,100,86,58,29.95,29.92,29.83,19,6,0,15,7,,0.01,6,Fog-Rain,177
2012-9-26,46,44,42,43,41,38,93,85,75,29.98,29.96,29.92,6,2,0,20,14,36,0.43,7,Fog-Rain,186
2012-9-27,50,46,41,49,42,37,94,82,69,30.06,29.96,29.89,12,6,0,23,14,52,0.00,4,Fog-Rain,173
2012-9-28,51,45,39,41,35,28,87,65,44,30.24,30.16,30.09,19,12,6,13,7,,0.00,3,,113
2012-9-29,49,46,42,47,43,38,100,83,61,30.24,30.18,30.15,11,5,0,17,13,43,0.67,8,Fog-Rain,183
2012-9-30,52,48,45,46,44,41,100,88,69,30.21,30.19,30.15,9,5,0,14,6,,0.24,7,Fog-Rain,109